K4AVM-13 Weather Reports


time (UTC)temp
C
wind
direction
speed
KPH
gust
KPH
rain 1hr
cm
rain 24hr
cm
rain mn
cm
humidity
%
barometer
mb
20260503072759 9 121 1.6 4.8 0.00 0.00 0.00 56 1016.0
20260503072257 10 37 6.4 12.9 0.00 0.00 0.00 56 1015.8
20260503071752 10 17 4.8 6.4 0.00 0.00 0.00 56 1015.7
20260503071250 10 165 1.6 4.8 0.00 0.00 0.00 56 1015.7
20260503070746 10 322 3.2 9.7 0.00 0.00 0.00 57 1015.7
20260503070244 10 126 0.0 6.4 0.00 0.00 0.00 57 1015.6
20260503060209 10 41 6.4 6.4 0.00 0.00 0.00 58 1015.1
20260503054656 10 240 3.2 14.5 0.00 0.00 0.00 57 1015.0
20260503054153 11 93 0.0 4.8 0.00 0.00 0.00 57 1014.9
20260503053651 11 359 6.4 11.3 0.00 0.00 0.00 57 1015.2
20260503053150 11 136 0.0 4.8 0.00 0.00 0.00 57 1015.1
20260503052645 11 271 3.2 3.2 0.00 0.00 0.00 57 1015.3
20260503052142 11 113 0.0 3.2 0.00 0.00 0.00 57 1015.0
20260503051637 11 251 3.2 6.4 0.00 0.00 0.00 57 1015.2
20260503051135 11 358 3.2 11.3 0.00 0.00 0.00 58 1015.1
20260503050632 11 168 1.6 3.2 0.00 0.00 0.00 59 1015.0
20260503050128 11 21 1.6 4.8 0.00 0.00 0.00 59 1015.0
20260503045626 11 154 0.0 1.6 0.00 0.00 0.00 60 1014.9
20260503045123 11 158 0.0 0.0 0.00 0.00 0.00 59 1014.9
20260503044619 11 152 0.0 3.2 0.00 0.00 0.00 58 1014.9
20260503044117 11 268 3.2 3.2 0.00 0.00 0.00 59 1014.8
20260503043613 11 132 0.0 4.8 0.00 0.00 0.00 59 1014.8
20260503043110 11 36 1.6 3.2 0.00 0.00 0.00 59 1014.7
20260503042607 11 144 0.0 1.6 0.00 0.00 0.00 60 1015.0
20260503042103 11 149 0.0 0.0 0.00 0.00 0.00 60 1014.9
20260503041600 11 114 0.0 0.0 0.00 0.00 0.00 60 1014.9
20260503041058 11 126 0.0 0.0 0.00 0.00 0.00 60 1014.9
20260503040554 11 149 0.0 0.0 0.00 0.00 0.00 60 1014.8
20260503040052 11 151 0.0 1.6 0.00 0.00 0.00 60 1015.0
20260503035548 11 152 0.0 1.6 0.00 0.00 0.00 60 1014.8
20260503035046 11 152 0.0 1.6 0.00 0.00 0.00 62 1014.9
20260503034543 11 131 0.0 0.0 0.00 0.00 0.00 62 1014.8
20260503034040 11 145 0.0 0.0 0.00 0.00 0.00 62 1014.8
20260503033537 11 155 0.0 0.0 0.00 0.00 0.00 63 1014.9
20260503033035 11 154 0.0 0.0 0.00 0.00 0.00 63 1014.8
20260503032533 11 150 0.0 0.0 0.00 0.00 0.00 63 1014.8
20260503032031 11 152 0.0 0.0 0.00 0.00 0.00 63 1014.8
20260503031529 11 152 0.0 0.0 0.00 0.00 0.00 63 1014.9
20260503031026 11 141 0.0 0.0 0.00 0.00 0.00 63 1014.7
20260503030522 11 151 0.0 0.0 0.00 0.00 0.00 63 1014.8
20260503030019 11 149 0.0 0.0 0.00 0.00 0.00 64 1014.7
20260503025515 11 155 0.0 0.0 0.00 0.00 0.00 65 1014.8
20260503025014 11 157 0.0 0.0 0.00 0.00 0.00 64 1015.0
20260503024509 10 153 0.0 0.0 0.00 0.00 0.00 66 1014.8
20260503024007 10 149 0.0 0.0 0.00 0.00 0.00 69 1014.8
20260503023503 10 149 0.0 0.0 0.00 0.00 0.00 69 1014.8
20260503023000 10 146 0.0 0.0 0.00 0.00 0.00 70 1014.8
20260503022456 10 152 0.0 0.0 0.00 0.00 0.00 71 1014.6
20260503021951 10 152 0.0 0.0 0.00 0.00 0.00 73 1014.7
20260503021448 10 152 0.0 0.0 0.00 0.00 0.00 72 1014.6
20260503020946 10 152 0.0 0.0 0.00 0.00 0.00 72 1014.6
20260503020443 10 152 0.0 0.0 0.00 0.00 0.00 72 1014.5
20260503015939 10 153 0.0 0.0 0.00 0.00 0.00 74 1014.6
20260503015436 10 152 0.0 0.0 0.00 0.00 0.00 73 1014.7
20260503014932 10 152 0.0 0.0 0.00 0.00 0.00 73 1014.6
20260503014429 10 152 0.0 0.0 0.00 0.00 0.00 72 1014.6
20260503013928 10 152 0.0 0.0 0.00 0.00 0.00 72 1014.2
20260503013424 10 154 0.0 0.0 0.00 0.00 0.00 72 1014.5
20260503012922 10 151 0.0 0.0 0.00 0.00 0.00 71 1014.4
20260503012420 10 149 0.0 0.0 0.00 0.00 0.00 70 1014.4
20260503011915 10 149 0.0 0.0 0.00 0.00 0.00 70 1014.4
20260503011412 10 149 0.0 0.0 0.00 0.00 0.00 70 1014.4
20260503010909 10 149 0.0 0.0 0.00 0.00 0.00 70 1014.3
20260503010406 10 136 0.0 0.0 0.00 0.00 0.00 70 1014.4
20260503005903 10 152 0.0 0.0 0.00 0.00 0.00 69 1014.5
20260503005401 10 152 0.0 0.0 0.00 0.00 0.00 69 1014.4
20260503004856 10 152 0.0 0.0 0.00 0.00 0.00 70 1014.1
20260503004354 10 149 0.0 0.0 0.00 0.00 0.00 67 1014.0
20260503003852 10 152 0.0 0.0 0.00 0.00 0.00 69 1014.0
20260503003348 10 151 0.0 0.0 0.00 0.00 0.00 68 1014.0
20260503002845 10 155 0.0 0.0 0.00 0.00 0.00 66 1013.9
20260503002343 11 149 0.0 0.0 0.00 0.00 0.00 65 1013.8
20260503001839 11 152 0.0 0.0 0.00 0.00 0.00 64 1014.0
20260503001335 11 152 0.0 0.0 0.00 0.00 0.00 64 1013.9
20260503000833 11 148 0.0 0.0 0.00 0.00 0.00 61 1013.7
20260503000330 12 150 0.0 0.0 0.00 0.00 0.00 60 1013.6
20260502235827 12 146 0.0 0.0 0.00 0.00 0.00 59 1013.4
20260502235324 12 151 0.0 0.0 0.00 0.00 0.00 59 1013.3
20260502234821 12 150 0.0 0.0 0.00 0.00 0.00 58 1013.5
20260502234318 12 157 0.0 0.0 0.00 0.00 0.00 59 1013.4
20260502233814 12 157 0.0 0.0 0.00 0.00 0.00 57 1013.4
20260502233311 13 156 0.0 0.0 0.00 0.00 0.00 55 1013.3
20260502232808 13 156 0.0 0.0 0.00 0.00 0.00 54 1013.2
20260502232305 13 156 0.0 0.0 0.00 0.00 0.00 53 1013.0
20260502231800 13 158 0.0 0.0 0.00 0.00 0.00 52 1013.0
20260502231258 13 153 0.0 0.0 0.00 0.00 0.00 50 1012.9
20260502230756 13 165 0.0 0.0 0.00 0.00 0.00 50 1012.9
20260502230254 14 150 0.0 0.0 0.00 0.00 0.00 48 1012.9
20260502225750 14 156 0.0 0.0 0.00 0.00 0.00 49 1012.9
20260502225247 14 144 0.0 0.0 0.00 0.00 0.00 47 1012.6
20260502224744 15 183 1.6 4.8 0.00 0.00 0.00 45 1012.9
20260502224241 15 152 0.0 0.0 0.00 0.00 0.00 47 1012.8
20260502223738 15 147 0.0 0.0 0.00 0.00 0.00 48 1012.8
20260502223236 14 156 0.0 0.0 0.00 0.00 0.00 46 1012.6
20260502222734 14 158 0.0 1.6 0.00 0.00 0.00 48 1012.7
20260502222230 14 160 0.0 1.6 0.00 0.00 0.00 47 1012.8
20260502221726 14 12 3.2 4.8 0.00 0.00 0.00 44 1012.9
20260502221223 14 38 3.2 4.8 0.00 0.00 0.00 45 1013.0
20260502220719 15 142 1.6 1.6 0.00 0.00 0.00 45 1013.3
20260502220215 15 108 0.0 6.4 0.00 0.00 0.00 45 1013.1
20260502215712 15 123 6.4 11.3 0.00 0.00 0.00 44 1013.1
20260502215203 15 82 3.2 9.7 0.00 0.00 0.00 44 1013.1
20260502214701 15 145 0.0 6.4 0.00 0.00 0.00 46 1013.1
20260502214158 15 135 0.0 1.6 0.00 0.00 0.00 46 1013.2
20260502213655 15 138 3.2 9.7 0.00 0.00 0.00 44 1013.0
20260502213152 15 172 0.0 6.4 0.00 0.00 0.00 45 1013.0
20260502212651 15 277 6.4 6.4 0.00 0.00 0.00 44 1013.1
20260502212149 15 79 1.6 1.6 0.00 0.00 0.00 44 1013.0
20260502211644 15 170 0.0 4.8 0.00 0.00 0.00 46 1012.8
20260502211141 16 151 0.0 3.2 0.00 0.00 0.00 42 1012.9
20260502210638 16 183 0.0 4.8 0.00 0.00 0.00 41 1012.9
20260502210135 16 313 1.6 4.8 0.00 0.00 0.00 43 1012.9
20260502205632 16 186 1.6 6.4 0.00 0.00 0.00 43 1012.7
20260502205129 16 37 3.2 4.8 0.00 0.00 0.00 44 1012.8
20260502204626 15 184 0.0 3.2 0.00 0.00 0.00 45 1012.6
20260502204124 15 247 3.2 4.8 0.00 0.00 0.00 44 1012.8
20260502203621 15 116 0.0 4.8 0.00 0.00 0.00 45 1012.9
20260502203119 15 61 3.2 3.2 0.00 0.00 0.00 43 1013.0
20260502202613 15 153 0.0 1.6 0.00 0.00 0.00 43 1013.1
20260502202106 15 303 4.8 4.8 0.00 0.00 0.00 42 1013.0
20260502201602 15 163 0.0 4.8 0.00 0.00 0.00 42 1013.1
20260502201058 15 323 3.2 3.2 0.00 0.00 0.00 43 1013.0
20260502200554 15 192 0.0 1.6 0.00 0.00 0.00 43 1013.0
20260502200052 15 11 4.8 6.4 0.00 0.00 0.00 41 1013.0
20260502195550 16 149 1.6 3.2 0.00 0.00 0.00 42 1013.2
20260502195046 16 158 0.0 3.2 0.00 0.00 0.00 42 1013.0
20260502194543 15 170 1.6 3.2 0.00 0.00 0.00 45 1013.2
20260502194039 16 74 1.6 9.7 0.00 0.00 0.00 42 1013.2
20260502193536 16 78 3.2 11.3 0.00 0.00 0.00 42 1013.5
20260502193033 16 322 3.2 3.2 0.00 0.00 0.00 42 1013.5
20260502192528 16 334 4.8 9.7 0.00 0.00 0.00 42 1013.4
20260502192026 16 246 3.2 6.4 0.00 0.00 0.00 43 1013.6
20260502191523 15 160 0.0 12.9 0.00 0.00 0.00 45 1013.6
20260502191021 15 161 1.6 6.4 0.00 0.00 0.00 43 1013.7
20260502190518 15 147 3.2 3.2 0.00 0.00 0.00 43 1013.6
20260502190015 15 78 3.2 6.4 0.00 0.00 0.00 44 1013.8
20260502185510 15 107 1.6 3.2 0.00 0.00 0.00 45 1013.7
20260502185007 15 102 0.0 3.2 0.00 0.00 0.00 47 1014.0
20260502184503 15 73 4.8 9.7 0.00 0.00 0.00 44 1014.0
20260502183959 15 292 1.6 6.4 0.00 0.00 0.00 47 1014.1
20260502183455 14 120 3.2 4.8 0.00 0.00 0.00 46 1013.9
20260502182950 15 15 3.2 4.8 0.00 0.00 0.00 47 1014.1
20260502182446 14 86 3.2 9.7 0.00 0.00 0.00 48 1014.3
20260502181942 14 218 3.2 4.8 0.00 0.00 0.00 48 1014.3
20260502181440 15 26 3.2 12.9 0.00 0.00 0.00 46 1014.6
20260502180939 14 168 1.6 4.8 0.00 0.00 0.00 47 1014.6
20260502180436 14 320 8.0 9.7 0.00 0.00 0.00 46 1014.9
20260502170355 12 132 0.0 1.6 0.00 0.00 0.00 51 1015.7
20260502164342 12 168 1.6 4.8 0.00 0.00 0.00 51 1015.5
20260502163838 12 14 4.8 9.7 0.00 0.00 0.00 50 1015.6
20260502163334 12 156 1.6 11.3 0.00 0.00 0.00 51 1015.7
20260502162832 12 159 0.0 4.8 0.00 0.00 0.00 54 1015.8
20260502162329 12 91 3.2 12.9 0.00 0.00 0.00 51 1015.6
20260502161826 12 140 6.4 9.7 0.00 0.00 0.00 53 1015.7
20260502161321 12 326 1.6 6.4 0.00 0.00 0.00 54 1015.7
20260502160819 12 26 3.2 6.4 0.00 0.00 0.00 53 1015.6
20260502160312 12 317 1.6 4.8 0.00 0.00 0.00 54 1015.8
20260502152242 12 184 1.6 3.2 0.00 0.00 0.00 56 1015.9
20260502151739 12 101 1.6 12.9 0.00 0.00 0.00 57 1015.7
20260502151236 12 343 6.4 11.3 0.00 0.00 0.00 57 1015.9
20260502150733 12 168 3.2 11.3 0.00 0.00 0.00 57 1016.1
20260502150230 12 119 3.2 3.2 0.00 0.00 0.00 58 1016.0
20260502130619 11 187 1.6 11.3 0.00 0.00 0.00 68 1015.5
20260502130116 11 139 0.0 3.2 0.00 0.00 0.00 69 1015.4
20260502123602 11 329 6.4 12.9 0.00 0.00 0.00 71 1015.4
20260502123058 11 262 1.6 6.4 0.00 0.00 0.00 73 1015.2
20260502122555 10 207 3.2 12.9 0.00 0.00 0.00 74 1015.1
20260502122052 11 149 1.6 6.4 0.00 0.00 0.00 76 1015.1
20260502121549 10 32 6.4 9.7 0.00 0.00 0.00 75 1015.0
20260502121047 10 124 8.0 14.5 0.00 0.00 0.00 75 1014.9
20260502120543 10 170 6.4 6.4 0.00 0.00 0.00 77 1014.9
20260502115538 10 315 3.2 4.8 0.00 0.00 0.00 80 1014.9
20260502115033 10 132 1.6 4.8 0.00 0.00 0.00 81 1014.9
20260502114530 10 25 3.2 6.4 0.00 0.00 0.00 82 1015.0
20260502114027 10 132 1.6 6.4 0.00 0.00 0.00 83 1015.1
20260502113525 10 327 3.2 4.8 0.00 0.00 0.00 83 1015.1
20260502113024 10 53 1.6 3.2 0.00 0.00 0.00 84 1015.2
20260502112521 10 173 0.0 4.8 0.00 0.00 0.00 85 1015.0
20260502112018 10 26 3.2 4.8 0.00 0.00 0.00 85 1015.0
20260502111515 10 140 1.6 1.6 0.00 0.00 0.00 85 1015.1
20260502111013 10 146 0.0 4.8 0.00 0.00 0.00 86 1015.1
20260502110510 10 147 0.0 3.2 0.00 0.00 0.00 86 1015.1
20260502110008 10 144 0.0 1.6 0.00 0.00 0.00 87 1015.1
20260502105505 10 147 0.0 1.6 0.00 0.00 0.00 87 1015.0
20260502105002 10 151 0.0 0.0 0.00 0.00 0.00 87 1014.9
20260502104459 10 151 0.0 0.0 0.00 0.00 0.00 87 1014.7
20260502103956 10 159 0.0 4.8 0.00 0.00 0.00 88 1014.8
20260502103454 10 175 0.0 1.6 0.00 0.00 0.00 88 1015.0
20260502102951 10 157 0.0 0.0 0.00 0.00 0.00 89 1014.8
20260502102448 10 158 0.0 0.0 0.00 0.00 0.00 89 1014.6
20260502101944 9 158 0.0 0.0 0.00 0.00 0.00 89 1014.7
20260502101443 9 150 0.0 0.0 0.00 0.00 0.00 89 1014.5
20260502100941 9 149 0.0 0.0 0.00 0.00 0.00 89 1014.3
20260502100439 9 117 0.0 0.0 0.00 0.00 0.00 89 1014.3
20260502091414 8 131 0.0 0.0 0.00 0.00 0.00 95 1014.0
20260502090910 8 132 0.0 0.0 0.00 0.00 0.00 94 1014.2
20260502090408 8 149 0.0 0.0 0.00 0.00 0.00 94 1014.1